Regional Weather Roundup
Issued by NWS Columbia, SC

Home | Current Version | Previous Version | Text Only | Print | Product List | Glossary On
Versions: 1 2 3 4 5 6 7 8 9 10 11 12 13 14 15 16 17 18 19 20 21 22 23 24 25 26 27 28 29 30 31 32 33 34 35 36 37 38 39 40 41 42 43 44 45 46 47 48 49 50
000
ASUS42 KCAE 251910
RWRCAE
REGIONAL WEATHER ROUNDUP
NATIONAL WEATHER SERVICE COLUMBIA SC
300 PM EDT MON SEP 25 2017

NOTE: "FAIR" INDICATES FEW OR NO CLOUDS BELOW 12,000 FEET WITH NO
SIGNIFICANT WEATHER AND/OR OBSTRUCTIONS TO VISIBILITY.

NOT ALL STATIONS ARE QUALITY CONTROLLED BY THE NATIONAL
WEATHER SERVICE. USE DATA WITH CAUTION...ESPECIALLY
DEWPOINT OBSERVATIONS.

SCZ001>056-GAZ040-063>065-077-252000-
...UPSTATE SOUTH CAROLINA...

CITY           SKY/WX    TMP DP  RH WIND       PRES   REMARKS
ANDERSON       SUNNY     86  62  44 N8        29.98F
LIBERTY        PTCLDY    87  63  45 NE7       29.99F
SPARTANBURG    MOSUNNY   84  59  42 N12G17    29.98F
CLEMSON        SUNNY     85  63  47 NE7       30.00F
GREENVILLE     MOSUNNY   85  62  46 NE12      30.01F
GREENWOOD      MOSUNNY   85  64  49 NE9       29.97F
GREER          MOSUNNY   83  62  49 N9        30.00F
ROCK HILL        N/A    N/A N/A N/A MISG      29.97F
CHESTER        CLOUDY    82  61  47 N14G20    29.97F
LAURENS        PTCLDY    82  63  51 NE8       29.97F


...CENTRAL SOUTH CAROLINA...

CITY           SKY/WX    TMP DP  RH WIND       PRES   REMARKS
COLUMBIA APT   PTSUNNY   87  63  44 N12       29.92F
COLUMBIA OWENS CLOUDY    85  61  44 VRB6      29.93F
MCENTIRE ANGB  PTSUNNY   84  64  50 N8        29.91F
ORANGEBURG     CLOUDY    84  62  47 N12       29.91F
SUMTER SHAW    PTSUNNY   86  64  47 NE13G20   29.89S
NEWBERRY       PTCLDY    86  64  48 N6        29.97F
AIKEN          FAIR      84  61  45 N12G20    29.96F
BARNWELL       FAIR      88  66  48 NE9       29.91F
MANNING        MOCLDY    81  63  54 MISG      29.90F
CAMDEN         FAIR      86  63  45 NE10G20   29.92F
LANCASTER      PTCLDY    84  63  48 N8        29.95F
WINNSBORO      MOCLDY    82  61  47 N9G17     29.94F


...EASTERN AND COASTAL SOUTH CAROLINA...

CITY           SKY/WX    TMP DP  RH WIND       PRES   REMARKS
MYRTLE BEACH   PTSUNNY   77  68  73 N15G21    29.89F
N MYRTLE BCH   PTSUNNY   80  70  71 N12       29.87F
CONWAY         CLOUDY    73  68  83 N9G16     29.91F
MARION         CLOUDY    73  66  78 NE9       29.93F
HARTSVILLE     FAIR      84  63  48 NE9G16    29.92F
FLORENCE       PTSUNNY   80  68  66 NE14      29.92F
DARLINGTON     MOSUNNY   85  68  56 NE13      29.92F
CHARLESTON APT PTSUNNY   81  69  67 N9        29.88F
MOUNT PLEASANT FAIR      81  70  69 N9        29.88F
WALTERBORO     PTCLDY    81  64  57 N5G16     29.90F
BEAUFORT       MOSUNNY   86  68  54 N9        29.88F


...EASTERN GEORGIA...

CITY           SKY/WX    TMP DP  RH WIND       PRES   REMARKS
AUGUSTA BUSH F SUNNY     91  61  36 VRB7      29.92F
AUGUSTA DANIEL SUNNY     89  61  38 N9        29.94F
THOMSON        SUNNY     85  63  46 E8G17     29.99F
WASHINGTON     FAIR     N/A N/A N/A N6        29.96F
CLAXTON        FAIR      88  67  49 W7        29.90F
SYLVANIA       CLEAR     87  68  54 N9        29.91F
STATESBORO     SUNNY     86  60  42 N8        29.90F
SAVANNAH       MOSUNNY   88  67  49 N10       29.89F


...SOUTHERN NORTH CAROLINA...

CITY           SKY/WX    TMP DP  RH WIND       PRES   REMARKS
CHARLOTTE      CLOUDY    84  64  50 N12G22    29.98F
MONROE         PTSUNNY   84  63  49 NE13      29.96F
RUTHERFORDTON  PTSUNNY   82  62  49 NE6       30.02F
ASHEVILLE      SUNNY     82  58  43 VRB3      30.07F

$$



USA.gov is the U.S. government's official web portal to all federal, state and local government web resources and services.